RH
92 96 101 106 107 107 108 108 106 105 104 103 102 102 102 101 101 100 101 101 99 91 84 80 81 90 102 106 96 82 79 89 100 102 97 93 92 93 94 100 105 105 105 106 103 102 102 99 97 99 101 100 100 99 98 96 96 95 95 94 91 90 88 87 85 82 80 77 74 70 68 65 63 62 59 58 57 57 57 59 62 66 71 76 86 97 101 101
92 93 95 99 104 108 112 112 110 109 108 106 104 104 103 102 102 102 101 100 101 102 99 95 91 92 98 105 107 100 89 83 87 97 103 102 100 100 98 98 101 102 103 104 103 103 103 102 100 100 99 99 97 95 94 93 92 93 93 91 89 87 85 83 80 77 74 71 69 66 64 62 60 58 57 56 56 56 61 65 68 73 84 94 99 104 105 103
96 97 97 97 100 104 108 111 111 111 110 109 107 106 104 103 102 102 102 101 100 100 101 102 101 100 101 102 101 102 100 95 90 90 95 100 102 103 103 101 100 100 99 100 100 100 101 100 100 99 99 98 97 95 94 93 92 92 90 87 85 83 80 77 74 71 69 66 64 62 60 58 57 57 55 54 54 59 69 76 78 85 95 102 104 103 102 102
92 98 99 99 99 100 102 106 108 109 109 107 107 106 105 104 104 103 102 101 100 99 99 101 102 101 101 101 101 101 101 102 101 98 97 99 101 101 101 101 100 100 100 99 98 97 97 96 96 96 96 96 94 92 91 88 86 84 81 79 76 74 72 69 67 66 64 62 60 58 57 55 55 55 53 57 65 71 80 88 92 98 101 101 102 102 101 101
79 88 95 97 98 97 96 99 102 105 107 106 104 104 104 104 103 103 103 102 100 98 97 96 97 98 98 98 98 99 98 100 100 99 100 99 99 100 99 100 99 99 98 96 95 93 91 89 88 87 86 85 83 81 79 77 76 74 72 71 70 68 67 65 63 62 60 58 56 54 53 52 53 55 63 80 91 92 96 100 100 102 101 101 102 102 100 97
62 70 80 88 92 95 94 93 94 95 98 100 100 100 100 100 99 98 98 99 98 97 95 94 93 92 92 93 93 92 92 94 93 93 95 95 95 95 95 94 93 92 90 89 87 85 84 81 80 78 76 75 73 73 71 71 70 70 69 68 67 65 64 62 60 58 55 53 51 51 52 53 59 67 83 99 102 101 103 103 101 101 101 101 102 101 98 91
52 56 61 69 76 83 88 90 90 90 89 90 92 94 94 95 95 94 93 91 92 91 91 91 91 90 88 87 86 85 85 85 85 84 84 84 84 84 84 84 83 82 81 80 79 78 77 76 74 73 72 71 70 69 68 68 67 67 66 64 63 61 59 57 54 52 49 48 47 49 52 61 76 87 95 101 101 101 102 101 101 100 101 102 102 100 95 87
48 49 50 54 58 64 71 77 81 84 85 85 85 85 86 87 87 87 87 86 86 85 86 86 86 85 84 83 82 80 79 78 77 76 76 75 75 75 75 74 74 74 74 74 74 73 72 72 71 70 69 68 66 66 65 64 63 62 61 59 57 54 52 48 47 45 44 46 48 55 66 79 94 101 101 101 100 100 100 100 100 100 102 102 99 95 90 83
48 47 46 46 47 50 53 57 63 68 72 75 78 79 79 80 81 81 81 81 81 81 80 80 80 79 78 78 77 76 75 73 72 71 70 69 68 68 68 68 67 67 67 67 67 67 66 66 66 65 64 63 62 62 61 59 58 56 53 50 47 44 43 42 42 43 46 50 54 69 89 98 100 102 102 101 100 100 100 101 100 103 104 100 95 91 87 80
53 51 49 47 45 44 44 45 47 50 53 57 61 65 68 70 71 73 74 74 75 75 75 75 74 73 72 71 70 69 68 68 67 66 65 64 63 63 62 62 62 61 61 61 61 61 61 61 60 60 59 58 57 55 53 51 48 45 42 40 38 38 40 41 44 47 51 54 63 83 102 104 101 101 101 100 100 100 100 100 102 106 102 96 94 91 85 78
54 52 49 47 46 44 43 43 42 43 43 45 47 49 51 53 55 57 58 60 61 62 63 64 64 64 63 62 62 61 60 59 60 59 59 59 58 58 58 57 57 57 56 56 55 55 54 54 53 52 50 48 46 43 41 39 37 35 34 35 35 38 41 43 47 51 56 64 78 97 108 105 100 100 100 100 101 101 100 101 102 103 98 94 93 91 84 81
54 50 47 44 43 42 41 41 41 41 41 41 41 42 42 42 43 44 44 44 45 45 45 45 45 46 46 45 45 45 45 45 46 46 46 46 46 46 46 46 46 45 45 44 43 43 42 41 41 40 38 37 36 35 35 35 35 34 34 35 37 41 45 46 49 56 68 79 91 101 105 103 98 97 100 101 102 102 101 100 101 100 94 92 92 88 83 87
53 49 46 43 41 40 40 39 39 39 39 40 40 41 42 43 43 43 43 42 41 40 39 38 37 35 34 34 33 32 32 31 31 31 31 31 31 31 31 31 32 32 32 32 32 32 33 33 33 33 33 34 34 35 37 37 38 37 36 37 38 42 46 50 57 71 87 94 97 99 100 101 99 97 98 99 101 102 101 103 103 98 91 90 92 88 85 91
50 47 44 43 41 40 40 40 40 41 41 42 43 45 45 46 47 47 46 45 43 42 41 39 36 34 32 30 29 28 27 26 26 26 26 26 27 27 27 28 28 29 29 30 31 31 32 33 34 34 34 35 36 37 39 39 38 37 37 39 42 49 61 73 84 93 99 100 99 99 99 100 101 99 97 96 97 99 101 103 102 96 91 92 92 88 87 96
49 48 47 47 47 47 48 48 49 50 51 51 52 53 54 55 56 57 56 53 50 48 46 43 39 36 33 30 27 25 24 24 24 24 25 25 26 27 27 28 29 29 30 31 32 33 34 35 37 38 37 37 39 39 39 38 36 36 41 48 55 68 85 98 104 102 100 100 99 99 99 100 101 100 99 95 92 93 96 98 100 99 96 93 92 87 90 100
57 58 59 61 62 63 63 64 65 66 66 66 67 67 68 68 68 67 66 63 60 57 54 50 45 41 37 33 29 26 24 23 23 23 24 24 25 26 27 28 29 30 31 32 34 35 37 39 41 43 42 42 42 40 39 39 42 46 55 68 77 86 96 102 103 101 99 100 100 100 100 100 100 101 101 96 89 90 93 96 100 102 98 94 90 86 90 101
71 73 74 74 74 74 73 72 72 71 70 70 70 71 70 70 69 68 66 64 63 60 56 52 47 42 37 32 28 25 22 21 21 21 22 23 24 25 26 28 29 30 31 33 35 37 39 42 44 44 45 45 43 42 45 50 57 66 76 88 93 95 100 102 101 100 99 100 100 101 100 100 101 101 101 97 91 91 93 93 95 96 95 92 88 88 95 103
79 79 78 76 74 73 71 69 68 66 66 66 66 66 67 68 67 66 64 62 60 57 54 49 43 38 31 26 22 19 17 16 16 17 19 20 21 23 25 26 28 30 31 33 35 38 41 43 45 46 46 45 44 47 56 66 74 83 90 97 99 99 102 102 100 100 100 100 101 101 100 101 100 100 102 101 99 96 90 87 89 93 95 93 90 94 100 102
75 74 73 70 67 65 62 62 63 63 64 64 65 66 67 68 67 66 64 61 58 55 50 44 37 31 24 19 17 15 13 13 12 13 14 16 18 19 21 23 25 27 30 32 35 38 42 44 46 46 44 47 54 63 76 88 93 95 96 99 101 100 100 101 101 101 100 100 101 101 102 101 100 103 106 106 104 100 93 88 88 92 95 93 93 96 97 94
70 69 67 65 62 59 58 59 62 66 67 67 68 69 69 71 71 68 66 64 59 54 48 40 33 26 20 16 15 13 12 12 11 11 13 13 15 16 18 20 21 24 27 30 34 37 41 43 42 44 52 62 73 81 87 94 96 96 98 100 100 100 100 101 101 100 100 102 101 102 102 101 104 107 106 103 101 100 101 100 98 97 95 91 91 92 90 89
75 71 70 69 65 60 59 60 65 70 71 71 72 73 73 74 73 70 67 64 59 53 46 39 32 25 20 17 15 13 11 10 10 11 12 13 14 16 17 19 20 22 24 28 32 34 39 43 46 55 68 78 86 90 92 96 97 97 99 100 100 101 101 100 100 101 103 103 103 105 104 105 108 106 100 99 101 103 105 106 106 103 96 91 90 89 86 86
83 80 84 86 82 74 67 65 71 76 75 75 76 76 77 77 74 72 68 63 59 52 45 38 31 24 21 18 15 14 12 10 11 12 13 13 15 17 19 21 23 24 26 29 32 37 49 60 67 79 88 91 95 98 95 96 99 99 100 100 101 101 100 100 101 102 104 103 103 104 103 104 107 104 101 100 102 105 105 106 106 101 96 94 93 89 86 85
89 92 98 98 97 91 79 74 78 81 79 78 78 78 80 79 77 74 70 64 57 50 44 37 29 23 20 18 16 14 12 12 13 15 15 15 17 19 21 24 26 29 31 36 45 61 78 84 88 97 101 99 101 102 97 96 100 101 100 101 101 101 101 102 102 102 104 103 101 100 99 102 105 105 104 102 103 107 106 105 102 99 99 97 93 92 93 95
91 98 101 100 101 96 88 86 87 87 83 79 79 81 82 80 79 76 70 63 55 48 41 34 26 21 18 17 17 17 15 15 16 17 18 18 19 21 24 27 32 40 47 59 75 88 93 92 96 101 101 99 99 100 99 99 100 101 100 101 101 101 101 101 101 100 99 98 97 95 97 101 104 105 104 102 105 107 104 101 100 103 105 102 101 103 103 99
92 100 101 100 100 96 93 92 92 89 84 80 80 82 81 80 79 75 70 61 53 46 38 29 23 19 17 17 18 19 19 19 21 23 24 25 26 29 34 39 46 52 57 70 84 90 91 93 98 100 99 100 100 100 100 100 101 100 100 99 100 101 101 99 97 94 93 96 96 97 99 100 102 105 103 102 105 103 100 99 102 107 107 105 104 100 91 78
97 101 99 99 97 93 89 88 89 87 82 80 81 80 78 78 76 72 67 58 49 43 35 26 20 16 16 16 18 20 20 21 25 29 30 32 36 40 46 53 60 65 69 79 86 88 92 97 100 101 100 100 100 100 100 100 101 101 101 100 100 99 96 94 93 93 96 99 100 102 104 101 101 103 101 99 100 98 96 97 99 101 100 97 89 77 65 53
98 100 97 96 91 85 83 84 86 83 80 80 79 78 77 75 73 69 64 55 45 37 29 21 16 15 15 16 17 18 19 20 24 28 30 34 39 43 49 55 61 70 80 92 96 94 97 100 101 102 102 102 103 103 103 102 104 104 103 100 96 95 94 94 95 98 100 102 102 101 98 95 96 100 101 101 102 101 99 99 95 90 85 74 62 52 45 41
97 96 94 91 85 83 86 87 85 80 78 78 78 77 75 73 71 66 60 52 42 31 23 18 14 13 13 14 15 16 17 17 19 23 26 31 34 39 46 52 58 66 76 87 94 94 97 102 104 105 104 104 105 104 103 103 104 103 100 98 96 96 98 98 100 103 103 101 99 96 94 96 100 102 104 104 104 105 102 95 86 74 62 50 41 39 39 40
93 89 86 85 86 89 90 85 79 77 76 78 79 78 75 72 69 63 56 47 36 26 18 14 12 12 11 12 13 13 14 14 15 17 20 24 28 32 39 44 50 59 68 79 89 91 94 99 102 101 99 99 99 99 99 100 101 100 100 100 99 100 102 102 103 102 98 94 95 100 102 105 109 105 98 96 93 90 83 73 64 54 44 38 37 39 41 41
88 85 84 86 90 89 83 77 75 75 77 80 81 78 75 71 67 61 50 39 30 21 14 12 11 11 10 11 12 12 12 12 12 12 14 16 20 25 30 35 40 46 55 67 78 84 87 88 88 89 92 97 98 98 99 100 100 100 101 102 103 104 103 100 96 93 93 97 103 106 104 105 108 99 85 81 77 68 60 51 45 40 37 38 39 40 40 39
88 88 87 86 84 78 74 74 75 76 79 82 81 77 74 69 63 56 44 32 24 16 11 10 10 11 11 11 12 11 11 11 10 11 12 12 14 16 21 27 31 36 43 54 65 75 82 82 81 86 93 98 99 99 101 102 102 104 105 104 104 102 96 93 94 96 101 104 101 98 94 94 95 85 72 66 56 46 43 40 37 37 37 39 40 40 40 41
88 86 82 76 73 73 74 75 76 78 81 81 79 75 71 66 58 47 35 25 17 12 10 9 10 11 11 11 12 12 12 12 11 12 12 12 13 13 15 20 25 30 37 44 53 64 73 75 78 85 92 95 96 96 95 96 96 97 96 93 92 90 87 90 95 96 95 91 86 83 80 76 73 64 55 48 39 35 36 35 36 38 39 40 40 41 43 44
81 77 73 72 74 77 78 76 76 79 80 79 77 74 69 62 50 37 26 18 12 10 10 9 10 11 12 12 12 13 14 14 14 15 15 14 15 15 15 17 19 24 30 37 46 57 66 70 70 74 80 81 82 82 82 83 83 85 88 89 92 90 86 85 85 83 80 76 74 71 62 54 50 44 39 36 34 35 35 36 38 39 40 41 42 44 44 44
76 73 74 76 79 79 77 76 78 79 79 77 76 73 66 55 41 28 19 13 10 10 10 10 11 12 13 14 14 15 15 16 16 17 18 18 18 18 18 18 18 20 23 28 36 47 61 71 70 67 69 67 67 70 72 75 75 77 81 83 83 80 73 69 64 61 59 54 54 51 43 38 36 34 33 33 35 37 38 39 40 40 42 43 44 45 45 47
73 73 76 77 77 76 76 77 79 80 79 77 74 68 58 45 32 21 14 10 9 10 11 12 13 14 16 16 16 17 17 17 17 17 18 18 19 19 20 20 20 21 21 23 27 32 44 58 62 63 63 59 59 60 61 65 66 66 68 67 66 62 56 51 45 40 38 36 37 37 34 33 32 33 34 36 39 42 42 43 45 47 49 49 48 50 52 54
72 73 75 76 76 76 77 79 82 81 79 76 69 59 46 33 23 15 10 10 10 11 12 14 15 18 18 17 17 17 17 17 17 17 18 18 18 19 20 20 21 21 23 23 26 27 32 42 46 47 48 47 47 49 50 53 54 52 51 49 47 43 39 37 35 33 31 31 32 32 33 33 34 35 37 40 43 43 44 47 53 57 59 58 59 59 59 58
71 72 75 77 77 77 79 82 83 81 77 70 60 47 34 23 15 11 10 10 12 13 15 16 17 19 19 19 18 18 18 18 18 18 19 19 19 19 19 20 20 20 21 22 24 25 27 35 39 37 36 35 35 36 36 37 37 36 34 33 31 31 31 31 31 31 31 32 34 35 37 37 38 40 40 41 41 41 44 48 53 58 61 62 62 61 60 61
69 73 76 78 78 79 82 84 83 79 72 61 48 35 24 16 11 10 10 12 13 16 18 20 20 20 20 20 19 18 18 18 18 18 18 19 19 20 20 20 20 21 21 22 23 23 23 28 32 32 30 29 28 29 30 30 30 30 30 30 31 31 32 32 33 33 34 36 37 40 43 44 44 44 40 38 41 46 50 54 58 63 64 63 62 61 60 59
72 76 77 78 79 81 84 84 81 74 64 50 36 25 17 12 11 11 12 14 17 20 21 22 23 22 22 21 20 19 18 18 18 18 19 20 20 21 21 22 22 22 23 23 24 24 24 26 29 30 29 30 29 29 30 31 31 32 33 34 35 37 37 37 37 37 37 39 42 44 46 45 44 44 42 44 49 55 59 62 65 66 64 62 60 57 55 52
75 77 78 79 81 83 84 82 75 65 51 38 26 17 12 11 12 13 16 18 20 22 23 23 24 23 22 21 20 19 19 19 19 19 20 20 21 22 22 23 24 24 25 26 26 27 27 28 30 32 32 32 33 33 35 36 36 38 40 41 43 44 43 42 43 44 46 47 47 45 43 39 39 43 46 48 51 54 57 59 58 57 56 56 55 53 52 51
77 78 79 80 82 83 82 76 66 51 37 26 17 13 12 13 15 17 19 21 22 23 24 23 23 22 21 20 20 20 19 20 20 20 21 21 22 23 23 25 26 26 27 28 29 29 30 31 33 34 35 35 35 35 37 39 40 42 44 46 47 48 48 48 48 50 52 52 49 46 44 42 42 45 48 48 48 49 50 50 50 52 54 55 56 55 56 58
78 80 81 82 82 81 76 67 52 36 25 17 13 13 14 16 19 21 22 23 23 23 23 22 21 20 20 20 20 20 21 21 21 22 22 23 23 24 25 26 27 28 28 28 28 28 28 30 33 35 37 38 38 40 42 44 46 48 51 54 57 57 54 49 45 45 47 50 51 49 48 47 45 45 47 49 49 48 48 49 51 53 55 56 58 59 60 62
81 83 83 82 81 75 66 52 37 24 17 13 13 16 18 20 21 22 23 23 22 22 21 20 20 20 20 20 21 21 22 22 23 23 24 25 25 26 26 26 26 26 26 26 27 28 30 35 40 48 55 55 54 55 58 60 60 62 67 69 67 61 54 46 40 39 42 52 62 65 68 68 62 60 64 65 63 60 58 59 60 60 61 60 59 58 57 57
83 84 82 80 74 64 51 36 23 17 15 15 18 20 21 21 21 22 22 22 21 21 20 20 20 20 21 21 21 22 23 24 25 26 27 27 26 26 25 25 24 24 26 30 34 39 43 44 47 55 63 66 66 67 71 73 71 67 65 62 58 56 54 53 56 63 69 75 80 80 80 79 72 70 75 75 70 68 66 65 62 60 59 57 56 56 56 58
84 82 78 72 62 49 35 23 17 16 17 20 22 22 22 22 22 22 22 21 21 21 21 21 21 21 22 22 23 24 25 26 27 27 27 26 24 24 24 24 25 28 32 39 46 51 53 50 46 45 46 50 56 60 64 68 67 63 60 61 66 72 75 77 81 87 89 88 84 78 74 73 70 70 74 72 69 69 68 68 68 67 66 65 66 67 66 64
81 77 71 60 45 31 22 17 18 20 22 23 23 22 22 23 22 22 22 21 22 21 21 22 22 23 24 25 25 26 25 25 24 24 24 23 24 25 26 29 33 37 43 49 54 56 53 47 40 36 32 32 37 41 43 48 53 58 63 69 77 84 86 85 84 83 81 80 80 74 68 67 68 69 73 74 75 76 78 81 85 84 82 79 75 70 64 58
76 69 56 41 27 20 19 20 22 23 23 24 23 23 23 22 22 22 22 22 22 21 22 23 25 26 26 25 24 23 22 22 21 22 23 25 28 31 34 38 41 44 46 49 48 47 45 41 35 31 27 26 29 33 39 48 55 60 64 66 69 72 73 73 71 70 69 70 71 70 67 68 72 78 82 84 86 87 87 86 83 78 72 66 61 57 54 54
65 50 34 23 20 20 22 23 24 24 24 24 24 23 22 22 22 22 21 22 23 24 25 25 25 25 23 23 22 21 22 22 23 24 26 28 30 31 33 35 37 37 36 36 37 38 38 35 33 35 32 29 35 42 52 66 72 69 66 63 62 64 67 69 70 72 75 77 79 82 83 84 88 92 92 88 83 78 71 65 60 56 54 53 54 56 57 58
42 29 22 21 23 24 24 24 25 25 24 23 23 22 22 22 22 22 23 25 25 25 25 24 23 22 21 21 21 21 21 21 21 21 22 23 24 26 27 27 27 27 26 29 33 34 34 34 42 54 55 51 57 67 74 84 88 84 78 73 72 75 78 82 86 89 93 94 93 91 88 85 83 82 78 71 64 57 53 52 54 56 58 60 61 60 58 55
25 23 23 24 25 25 25 25 25 24 23 23 22 22 22 23 25 26 26 26 25 24 23 22 22 20 20 19 18 18 17 16 17 18 19 20 20 22 24 25 26 26 26 29 32 32 36 43 54 72 81 76 78 87 93 98 101 100 95 89 88 92 93 94 94 94 94 92 87 82 77 75 74 71 70 69 66 63 63 64 65 64 63 61 57 54 51 49
24 25 25 26 26 26 26 25 24 23 22 22 23 24 25 27 27 26 25 24 23 23 21 20 19 17 16 15 15 15 15 16 17 18 19 21 23 25 27 27 28 28 26 28 32 36 44 53 63 81 92 87 83 86 92 97 101 102 98 92 92 94 91 86 82 79 77 74 70 67 66 69 72 74 78 81 79 75 69 64 60 56 53 51 49 46 43 39
25 25 26 26 26 25 24 23 23 23 24 25 26 27 27 26 25 24 24 23 22 20 19 17 15 14 14 14 15 16 16 17 18 19 21 23 24 26 27 26 25 26 27 31 38 45 52 58 65 76 84 82 79 81 86 92 97 97 90 84 82 80 74 69 67 68 69 68 66 65 67 71 72 73 73 72 68 62 56 51 48 45 43 40 37 33 27 22
Wind_Speed
49 49 48 47 47 47 47 48 48 48 49 49 48 47 47 47 47 47 47 48 50 54 57 61 62 61 59 58 60 63 64 63 61 60 60 62 63 64 64 63 62 60 59 59 59 59 61 62 63 63 64 64 64 65 66 66 67 68 68 69 69 70 71 71 72 73 73 73 75 76 76 77 79 80 80 79 78 77 76 75 73 73 73 72 71 70 70 71
48 48 48 48 48 47 47 48 48 49 50 50 50 50 49 49 49 49 49 49 49 50 52 55 58 60 60 59 59 61 64 66 66 64 63 62 63 64 65 66 66 65 64 63 62 62 62 63 64 65 66 67 67 68 69 69 69 70 71 72 72 72 73 74 75 75 75 75 77 79 79 78 79 82 82 80 77 76 73 72 72 71 69 68 68 67 67 68
47 47 48 48 48 48 48 48 49 49 50 50 51 51 51 51 51 51 51 51 51 51 51 52 53 56 57 58 57 58 60 63 65 67 67 66 65 65 66 66 67 67 67 67 66 66 65 65 65 66 67 68 69 70 71 71 71 72 74 74 74 75 76 77 78 78 78 78 78 80 81 79 79 81 82 79 76 73 70 70 70 68 65 64 65 66 66 67
47 48 48 48 48 49 49 49 49 50 50 51 51 51 51 52 52 53 53 54 54 54 54 54 54 55 56 57 58 58 59 60 61 64 65 66 67 67 67 68 68 68 68 69 69 68 68 68 68 68 69 70 71 72 73 74 74 75 77 76 77 78 78 80 80 80 80 79 78 79 81 80 78 79 79 76 72 70 67 67 66 64 63 63 64 65 66 67
45 47 48 49 49 49 50 50 50 50 51 51 52 52 52 53 53 54 55 55 56 57 57 57 58 58 59 59 60 61 62 62 62 63 64 65 66 67 68 68 69 69 70 70 71 71 72 72 72 72 72 73 75 75 76 76 76 78 79 79 80 80 80 82 82 81 81 81 79 78 79 78 76 75 72 68 66 65 64 63 63 63 62 63 64 66 67 68
42 45 47 48 49 50 50 51 52 52 52 53 53 53 54 54 55 56 56 57 58 58 59 60 60 61 62 62 63 64 65 65 66 66 66 67 67 68 69 70 71 71 72 72 73 74 74 75 75 76 76 77 78 78 79 79 78 79 81 81 81 81 81 83 82 81 81 79 78 76 74 73 71 69 64 61 62 63 62 62 62 62 62 63 65 67 69 71
36 39 43 45 48 50 51 52 52 53 54 55 55 55 56 56 56 57 58 59 59 60 61 61 62 63 64 65 66 67 68 69 70 70 71 71 71 72 72 73 73 74 74 75 75 76 77 77 78 78 79 79 80 80 81 81 81 81 82 83 83 82 83 83 82 80 78 75 74 72 69 67 65 64 61 60 62 63 63 63 63 62 62 63 65 68 70 72
31 33 36 39 43 46 48 50 52 53 54 55 56 57 57 58 58 59 60 60 61 62 63 63 64 65 66 67 68 70 71 72 73 73 74 74 75 75 76 76 76 76 77 77 78 78 79 79 80 81 81 82 83 83 83 83 83 84 83 84 83 82 82 81 78 76 73 70 69 66 63 61 61 61 61 61 63 64 64 65 64 63 63 65 67 69 71 72
27 29 31 33 36 39 42 45 48 51 53 54 56 57 58 59 59 60 61 62 63 63 64 65 66 67 68 69 71 72 73 74 75 76 77 77 78 78 79 79 80 80 80 80 81 81 82 82 83 84 84 85 85 85 85 84 84 84 83 82 81 78 76 74 71 69 67 65 63 60 58 59 60 61 62 63 64 64 65 66 65 65 66 67 69 70 72 73
26 27 28 30 32 34 36 39 41 44 47 50 52 54 56 57 59 60 61 62 63 64 65 67 68 69 70 72 73 74 75 76 77 78 79 80 81 81 82 82 83 83 83 83 84 84 84 84 85 85 85 86 86 85 84 83 82 81 78 75 73 71 68 67 65 63 62 60 59 56 56 59 60 61 62 64 65 65 66 66 66 66 68 69 70 72 73 73
25 26 27 28 30 31 33 35 37 39 42 44 46 49 51 53 55 57 58 60 62 63 65 66 68 70 71 73 74 76 77 78 78 79 80 81 82 82 83 83 84 84 84 84 84 84 84 84 84 84 83 83 82 81 79 78 76 73 70 67 65 63 62 62 60 59 58 56 54 52 54 58 58 61 63 64 66 66 67 67 66 67 69 70 72 73 73 72
24 25 26 27 28 30 31 33 35 37 39 40 42 44 46 48 50 52 54 56 58 59 61 63 65 67 69 71 72 74 75 76 77 78 79 79 80 80 81 81 81 81 82 81 81 81 80 79 79 78 78 77 75 73 71 70 68 65 63 61 59 57 59 59 57 55 54 53 51 51 55 60 61 62 64 65 66 67 67 67 68 69 71 72 74 74 73 72
23 23 24 25 26 27 29 30 32 33 35 36 38 39 41 42 44 46 48 50 52 54 56 58 60 62 64 65 67 69 70 71 72 73 73 74 74 75 75 75 75 75 75 75 74 74 73 72 72 71 70 69 67 65 64 62 61 60 58 56 55 55 56 57 55 52 50 50 53 54 58 64 65 65 66 67 67 67 67 68 70 72 73 74 75 75 73 72
21 22 22 23 23 24 25 26 27 29 30 31 33 34 36 37 39 41 43 45 47 49 51 53 55 57 58 60 61 62 63 64 65 66 67 67 67 68 68 68 68 68 68 67 67 67 66 66 66 65 64 63 61 60 59 58 57 56 55 54 54 52 52 53 52 49 49 51 55 56 57 60 64 65 67 68 68 68 67 69 73 74 75 75 75 75 74 73
18 18 19 19 20 21 22 23 24 25 26 28 29 31 32 34 36 38 40 42 44 46 48 50 52 54 55 56 57 58 58 58 59 60 60 61 61 62 62 62 63 63 63 62 62 62 62 61 61 61 61 59 58 57 55 55 54 53 51 51 51 49 49 49 50 50 52 54 56 56 55 57 62 65 67 69 70 69 70 73 76 77 76 75 75 75 75 74
15 15 16 17 17 18 19 20 21 23 24 26 27 29 31 32 34 36 38 40 42 44 46 48 50 52 53 54 55 55 55 55 55 55 56 56 56 57 58 58 59 59 59 59 59 59 59 58 58 59 59 57 56 55 53 52 51 49 47 47 48 47 46 46 50 52 54 56 58 58 57 58 62 65 68 70 70 70 72 75 78 78 78 77 76 75 74 73
14 14 15 16 17 18 19 20 21 22 24 25 26 28 29 31 33 35 37 39 41 43 45 47 49 51 52 53 54 54 54 53 53 53 53 54 54 54 55 55 56 57 57 57 57 57 57 57 57 57 57 56 55 53 50 48 47 46 44 43 45 45 45 47 50 53 56 58 59 59 58 59 62 66 70 72 71 72 74 77 80 80 79 79 78 76 73 72
14 15 15 16 17 18 19 20 22 22 23 24 25 27 29 31 33 35 37 38 40 42 44 46 48 50 51 51 52 53 52 52 52 52 52 53 53 53 54 54 55 55 56 56 56 56 56 56 57 57 56 55 53 50 46 44 43 42 41 41 43 45 48 51 52 55 57 58 59 60 60 60 63 67 71 74 74 75 78 79 79 80 80 80 79 76 73 72
16 16 17 17 18 19 20 21 22 22 23 24 26 28 30 33 35 36 38 39 40 41 43 45 46 47 49 49 49 50 50 50 50 50 51 51 52 53 53 54 55 55 55 55 55 55 55 56 56 55 54 52 49 46 43 41 41 42 42 43 44 48 53 56 56 57 58 58 59 61 62 62 65 69 72 75 77 79 79 79 79 80 80 80 79 76 74 73
17 18 18 19 20 20 21 22 23 24 24 26 28 30 32 35 37 37 38 39 40 41 43 44 45 46 47 46 46 46 46 46 46 47 47 49 50 51 52 53 54 54 54 54 54 54 53 54 55 52 49 47 45 44 43 42 43 45 47 48 50 54 56 58 59 59 59 59 60 63 63 64 67 71 74 77 79 79 78 79 79 80 80 80 78 77 76 75
19 20 20 21 22 23 23 25 25 26 27 29 31 33 35 37 38 39 39 40 41 42 43 44 45 45 45 44 43 42 42 42 42 43 44 45 46 47 48 50 51 51 52 51 52 51 49 50 51 48 44 43 42 44 45 46 47 49 51 52 55 57 57 58 59 60 61 61 63 65 66 67 71 74 76 77 77 77 78 79 80 80 80 79 78 78 78 78
21 21 22 23 25 27 27 28 29 29 30 32 34 36 38 39 40 40 41 41 41 43 44 44 45 44 44 42 41 39 39 39 39 39 41 41 42 43 44 45 46 47 47 46 46 46 45 45 46 43 41 41 42 43 45 47 50 51 51 53 55 58 58 59 61 63 64 64 65 68 68 71 74 75 75 75 76 78 79 80 81 81 81 79 78 78 78 79
22 23 24 25 28 30 31 32 33 33 34 35 36 38 40 41 41 42 42 42 42 43 44 45 45 44 42 41 39 38 37 37 37 37 38 38 39 40 40 41 42 43 43 41 39 40 40 42 42 40 41 43 44 46 46 48 51 52 53 55 58 60 61 62 63 65 66 67 68 70 71 72 74 74 74 76 78 79 80 81 82 82 80 79 78 79 79 80
23 24 26 27 29 32 34 35 35 36 37 37 38 40 40 42 42 43 43 44 43 44 45 45 45 43 41 39 37 36 36 35 35 35 35 36 37 38 38 39 39 39 38 36 35 37 40 41 41 42 44 45 46 48 49 50 53 55 56 58 60 62 63 64 66 67 68 70 71 71 71 72 73 75 77 78 78 79 80 82 82 81 80 79 79 80 81 81
24 26 28 29 31 34 36 36 37 38 39 40 40 40 41 42 43 44 44 44 44 45 46 45 44 42 39 37 36 35 35 35 35 34 34 34 35 36 37 37 38 38 38 37 37 39 42 43 42 43 45 46 46 48 51 53 54 57 59 61 62 64 66 68 69 70 70 71 71 72 73 73 77 79 77 77 78 79 80 81 80 80 80 80 81 81 80 79
26 28 29 31 33 36 37 37 38 40 40 41 41 41 42 43 44 44 45 45 45 45 46 45 43 40 38 36 35 34 34 35 35 35 35 35 35 36 36 37 38 39 39 39 40 42 44 44 44 45 47 48 50 52 54 56 57 60 63 65 66 68 69 70 70 70 69 69 70 74 77 77 79 80 78 78 79 79 79 79 79 79 80 80 80 79 78 77
28 30 32 34 35 36 37 38 39 40 41 41 41 42 43 44 45 45 45 46 45 45 45 44 41 39 37 35 35 34 34 34 35 35 36 36 36 37 38 39 39 40 40 41 42 45 46 47 48 50 51 53 55 57 59 60 62 64 66 68 68 68 68 68 68 69 69 71 74 79 80 78 78 81 80 79 78 77 77 78 79 79 79 79 78 77 76 76
31 32 33 35 36 37 39 40 41 41 41 42 42 44 44 45 45 45 45 46 46 46 44 42 40 37 36 35 34 34 34 35 35 35 36 37 38 38 39 41 42 42 43 43 46 49 50 51 52 54 55 57 59 61 62 64 64 65 66 67 67 67 67 68 69 71 74 75 77 79 80 80 81 81 80 77 75 75 76 77 77 77 77 76 76 75 75 75
33 34 35 36 37 39 41 41 41 41 42 43 44 45 45 46 46 46 46 46 47 46 43 41 38 36 35 34 34 34 35 35 35 35 36 37 39 40 41 42 43 44 45 46 48 51 53 54 56 57 58 59 61 61 62 63 63 64 65 66 67 68 69 72 73 75 76 76 77 79 81 82 81 79 77 75 75 75 75 75 75 75 76 75 75 74 74 73
35 36 36 37 39 40 41 40 41 42 42 44 45 46 46 47 47 47 47 46 46 45 42 39 36 35 35 34 34 34 35 35 35 35 36 37 39 40 42 43 44 46 47 48 50 52 54 56 57 57 57 58 59 60 61 62 63 65 66 68 70 72 74 75 76 76 76 77 78 80 80 79 79 78 76 75 74 74 73 74 74 75 75 74 74 72 70 67
36 37 38 39 39 39 39 40 41 42 43 45 46 47 47 47 47 48 48 47 46 44 40 36 34 34 34 34 34 34 35 35 36 35 35 37 38 40 41 43 45 47 47 49 51 53 55 57 57 57 58 59 60 61 62 64 66 68 70 72 73 75 75 75 76 77 78 78 78 78 77 76 77 77 76 75 74 72 72 73 73 73 73 73 71 68 65 64
37 37 38 37 37 38 40 42 42 43 44 46 47 48 48 48 48 48 48 47 45 41 37 35 33 32 33 33 33 33 34 34 35 35 35 36 37 38 40 42 44 46 48 49 51 53 55 57 58 59 61 62 64 65 66 68 69 71 72 73 74 74 75 75 76 78 78 77 75 74 74 75 75 75 75 75 74 73 72 72 72 72 71 69 66 65 64 65
35 35 36 36 38 41 43 43 43 44 45 47 48 49 49 49 49 49 47 45 42 38 36 34 32 32 32 32 31 31 32 33 34 35 35 36 37 38 39 40 42 44 47 49 51 53 56 58 59 60 62 64 65 66 67 68 69 71 72 74 75 76 75 75 75 75 74 73 72 73 73 73 74 75 74 74 73 72 72 71 71 70 67 65 64 65 67 68
34 34 36 39 41 43 44 44 44 45 47 48 49 49 49 50 50 49 47 43 39 36 34 33 32 31 31 31 31 32 32 33 33 34 35 35 37 38 39 40 41 42 45 47 49 52 55 58 60 62 63 65 65 66 68 69 70 71 72 74 75 75 73 72 70 70 69 69 70 72 73 72 73 73 72 72 72 72 72 71 70 67 65 65 66 68 70 71
34 37 39 41 43 43 44 44 45 46 47 48 49 49 50 50 49 48 44 40 36 34 33 32 32 31 31 31 31 33 34 35 35 35 36 36 36 38 39 40 41 42 43 44 47 49 52 57 59 62 64 65 65 66 67 68 69 69 70 70 70 70 70 69 69 69 68 67 68 70 71 71 70 70 70 70 70 71 70 68 67 66 67 68 70 71 73 75
38 40 42 43 43 44 44 45 46 48 48 49 49 49 50 50 48 45 41 37 35 33 32 31 31 31 32 33 33 34 35 36 36 36 37 37 38 38 39 40 41 42 43 43 44 46 47 51 54 57 59 60 61 62 63 64 65 65 66 66 67 67 67 68 67 68 68 66 66 68 69 69 68 67 68 69 69 68 66 65 65 67 69 71 73 75 77 79
41 42 43 44 44 45 46 47 48 49 49 49 50 50 50 49 45 41 37 35 34 33 32 32 31 31 33 35 36 36 36 37 38 38 38 39 40 40 41 42 42 43 44 44 45 45 45 47 51 54 56 57 57 58 60 61 62 63 63 64 64 65 65 66 65 66 66 65 65 66 68 69 67 67 67 66 65 64 63 64 67 70 72 75 77 79 80 82
42 43 44 44 45 46 47 48 49 50 50 50 50 50 49 46 42 38 35 34 33 32 32 32 33 33 35 37 38 38 38 38 39 39 40 40 41 42 43 44 44 45 46 46 47 47 46 46 51 55 56 57 57 58 59 60 61 62 62 63 64 64 64 65 65 65 64 64 64 65 67 68 67 66 64 62 61 62 64 67 70 73 75 78 80 82 84 86
43 44 45 46 47 47 49 50 50 50 51 51 50 49 46 42 39 36 34 33 32 32 32 32 34 36 36 37 39 40 40 40 41 41 42 42 43 44 45 45 46 46 47 48 48 49 48 47 50 54 56 56 57 58 58 59 60 61 61 62 63 64 65 65 66 66 65 64 64 64 66 65 63 62 62 61 62 64 67 70 73 76 79 82 84 86 88 90
43 44 46 47 48 49 50 50 51 51 51 51 49 46 42 38 36 34 33 32 31 32 33 34 35 37 38 39 40 41 42 42 43 43 43 44 44 45 46 46 47 47 48 49 49 50 51 50 50 54 56 56 57 58 58 58 59 60 61 61 63 64 64 65 65 66 65 65 64 64 63 62 60 60 62 63 65 68 71 74 77 80 83 86 88 90 92 94
44 45 47 48 49 50 50 51 51 51 51 49 46 42 38 36 34 33 32 32 32 33 34 35 37 38 39 40 41 42 43 44 45 45 45 46 46 46 47 48 49 50 50 51 51 52 52 52 53 55 56 57 57 58 57 57 58 59 59 60 61 62 63 63 63 64 64 63 62 61 61 60 60 62 65 67 69 72 75 78 81 84 87 89 92 94 95 97
45 47 48 49 50 51 51 51 52 51 49 45 41 38 36 34 33 32 32 33 34 35 36 37 38 39 40 41 42 43 44 45 46 47 47 48 48 48 49 50 50 51 51 52 53 53 52 52 53 54 55 56 57 57 57 56 57 58 59 60 61 62 63 63 62 61 60 60 60 61 62 63 63 65 69 72 75 77 79 82 85 87 90 93 95 97 99 101
47 48 50 50 51 51 51 52 51 49 45 41 37 35 33 32 32 32 33 34 36 37 38 39 40 40 41 42 43 44 44 46 47 48 49 49 50 50 51 51 51 51 51 52 52 52 52 52 52 54 56 57 56 56 57 57 57 58 58 60 62 62 61 61 59 58 58 59 61 63 66 69 70 70 73 77 80 82 84 87 89 92 94 97 99 101 103 106
49 50 50 51 51 51 52 51 48 44 40 37 35 33 32 32 33 34 35 36 38 39 39 40 41 42 43 44 44 45 46 47 48 49 49 50 50 51 51 51 51 51 51 51 52 53 54 54 54 54 56 58 57 57 57 57 58 58 58 59 59 59 58 57 57 58 59 61 64 66 68 73 75 76 78 82 85 87 90 93 95 97 100 101 103 105 108 111
50 50 50 50 51 51 50 47 43 39 36 34 33 32 33 34 35 36 37 38 39 40 41 41 42 44 45 45 46 47 47 47 48 49 49 50 50 50 51 51 51 51 52 52 53 55 56 56 56 55 55 56 56 55 55 54 55 55 54 54 54 55 56 56 57 59 61 64 68 70 71 74 78 81 84 87 89 92 95 98 101 104 106 107 109 111 114 117
50 50 51 51 51 49 45 41 37 35 33 33 33 34 35 36 37 38 38 39 41 41 42 43 44 45 46 47 47 48 48 49 49 49 49 50 50 50 51 52 52 52 53 54 54 56 56 56 56 55 54 53 52 52 51 50 50 51 51 52 53 54 56 58 60 63 65 68 72 75 76 77 81 84 88 91 94 97 99 102 105 108 110 112 114 117 119 121
50 51 51 50 47 43 39 35 34 33 33 34 35 36 37 37 38 39 40 41 42 43 44 44 45 46 47 48 48 49 49 50 50 50 50 50 51 51 52 52 53 53 54 54 55 55 55 54 53 52 52 50 49 49 48 48 49 51 52 54 55 58 60 63 65 67 70 73 76 79 82 83 85 88 92 95 98 101 103 106 109 111 113 114 116 118 120 122
51 50 48 45 40 36 34 33 33 33 34 35 36 37 38 39 40 41 41 42 43 44 45 46 47 47 48 49 49 49 50 50 51 51 51 51 51 52 52 52 53 53 53 53 53 52 51 50 49 50 50 48 47 47 48 50 52 54 56 58 60 62 65 68 70 73 76 78 80 83 86 88 90 93 97 100 103 105 107 110 112 113 115 116 118 121 123 126
49 46 42 37 34 33 33 33 34 35 36 37 37 38 39 40 41 42 43 44 45 46 47 47 48 48 49 49 49 49 50 50 50 50 50 50 50 51 51 51 51 51 51 50 50 49 48 47 46 47 49 49 48 49 51 53 57 59 62 63 65 68 70 72 75 78 81 84 86 88 91 93 96 99 101 104 107 109 111 113 115 117 118 120 123 126 128 130
43 38 35 33 33 33 34 35 36 37 38 38 39 40 41 42 43 44 45 46 46 47 47 48 48 49 49 49 49 49 48 48 48 48 48 48 48 48 49 49 49 49 48 48 47 47 46 46 46 47 49 50 51 52 54 57 60 64 66 68 70 72 75 77 79 82 85 88 91 93 95 98 100 103 105 108 111 113 115 118 120 122 123 126 128 130 132 134
35 33 33 33 34 35 36 37 38 38 39 40 41 42 43 44 45 45 46 46 47 47 48 48 48 48 48 47 47 46 46 46 46 46 46 46 46 46 46 46 46 46 46 45 45 45 46 46 47 48 51 53 54 55 58 60 64 67 70 72 74 77 79 82 84 86 89 92 94 96 97 99 102 104 107 110 113 117 120 123 125 126 128 130 132 134 134 134
33 33 34 35 36 37 37 38 39 40 41 42 43 44 44 45 45 46 46 46 47 47 47 47 47 46 46 45 45 45 44 44 44 44 44 44 44 44 44 44 44 44 44 44 44 45 47 48 49 51 54 57 59 60 62 64 68 71 74 76 78 81 83 85 87 89 92 95 96 98 100 102 105 107 109 112 115 119 123 127 129 130 130 131 131 130 129 126
Wind_Direction
223 224 225 227 228 229 230 231 232 233 233 234 235 235 235 235 235 235 235 235 236 237 238 239 241 244 246 246 245 246 248 251 252 253 254 255 256 258 259 261 262 263 263 263 263 263 263 264 265 266 267 268 269 271 272 272 273 274 275 275 276 277 278 279 279 280 281 282 283 284 285 285 286 286 286 286 286 286 286 286 285 284 285 285 285 284 284 285
224 226 228 229 230 232 233 234 235 236 237 237 238 239 240 240 240 240 240 241 240 240 240 241 241 243 246 247 248 247 247 250 253 255 255 256 256 257 258 260 262 263 264 265 265 265 265 265 266 267 268 269 270 271 272 273 274 275 275 276 277 277 278 279 280 281 282 283 284 285 285 285 285 286 286 286 285 285 285 285 284 284 285 285 284 283 283 284
225 226 228 230 232 233 235 236 237 238 239 240 241 241 243 244 244 245 245 245 245 245 245 245 245 245 246 247 248 249 249 250 251 253 255 256 257 258 258 259 261 262 264 265 266 266 266 267 267 268 268 269 270 271 272 273 274 275 275 276 277 278 279 280 281 282 283 284 285 285 285 285 284 284 285 285 284 284 284 284 285 286 285 284 283 283 283 284
226 227 229 230 232 234 235 237 239 240 242 243 244 244 246 246 247 248 248 249 249 249 250 250 250 250 250 250 251 252 253 253 253 253 254 256 257 258 259 260 261 262 263 264 265 266 267 268 268 269 270 271 271 272 273 274 275 276 277 278 279 280 281 281 282 283 283 284 284 284 284 284 283 283 284 285 285 285 285 286 286 286 284 282 281 282 284 286
227 229 230 232 233 235 236 238 240 241 243 244 245 247 248 249 250 250 251 252 252 253 253 253 254 254 254 254 255 256 256 257 257 257 257 257 258 259 260 261 262 263 264 265 266 267 268 269 270 271 271 272 273 274 275 276 277 278 278 279 280 281 281 282 282 283 283 283 283 283 283 283 283 282 284 285 284 285 286 285 285 284 282 281 282 283 285 287
230 231 232 233 235 236 238 239 241 243 244 245 247 248 249 251 252 253 253 254 255 255 256 256 256 257 257 258 258 258 259 260 260 260 260 260 261 261 262 263 264 265 266 267 268 268 269 270 271 272 273 274 274 275 276 277 278 278 279 280 280 281 281 282 282 282 283 283 282 281 281 281 282 282 283 282 282 283 284 284 283 281 281 282 284 286 288 290
234 234 235 236 237 238 240 241 243 244 245 247 248 249 250 252 253 254 255 256 256 257 258 258 258 259 259 259 260 260 260 261 261 261 262 262 263 263 264 265 265 266 267 268 269 270 271 271 272 273 273 274 274 275 276 277 277 278 279 279 280 281 281 281 282 282 282 281 281 280 281 281 280 280 281 280 280 281 282 281 280 279 280 282 285 287 290 293
239 239 239 240 240 241 242 243 245 246 248 248 250 251 252 253 254 255 256 257 258 259 259 259 260 260 260 261 261 261 261 262 262 262 263 263 263 264 265 265 266 267 267 268 269 270 271 272 273 273 274 274 274 275 276 276 277 277 278 279 280 281 281 281 281 281 281 280 280 280 280 279 278 278 279 278 278 279 279 279 279 279 280 282 285 287 290 293
244 244 244 244 244 245 245 246 247 248 249 250 251 253 254 255 256 257 258 259 259 260 260 261 261 261 261 261 261 262 262 262 262 263 263 264 264 264 265 266 266 267 267 268 269 270 271 272 272 273 274 274 275 276 276 277 278 278 279 280 280 280 280 280 280 279 279 279 279 279 278 278 277 278 278 277 277 277 277 278 279 281 282 285 287 289 292 293
246 247 248 248 249 249 249 249 250 251 251 252 253 254 255 256 257 258 259 259 260 261 261 261 262 262 262 262 262 262 262 262 263 263 264 264 264 265 265 266 267 267 268 268 269 270 271 272 273 273 274 275 276 277 277 278 278 279 279 279 280 280 279 278 278 278 278 278 278 277 276 276 277 277 277 277 277 276 276 277 279 282 285 287 289 291 293 293
247 248 249 250 251 251 252 252 253 253 254 254 255 256 256 257 258 259 259 260 261 261 262 262 262 263 263 263 263 263 263 263 264 264 264 265 265 266 266 267 267 268 269 269 270 271 271 272 273 274 275 275 276 277 278 278 279 279 279 279 279 278 277 276 276 276 276 276 277 277 277 277 278 278 277 277 277 277 277 278 280 283 286 288 291 293 294 293
248 248 249 250 250 251 252 252 253 254 254 255 256 257 258 259 260 261 261 262 262 263 263 263 263 264 264 264 264 264 264 265 265 265 266 266 267 267 268 268 269 269 270 270 271 271 272 273 274 274 275 276 277 278 278 279 279 279 279 278 277 276 275 275 275 274 274 276 277 279 279 278 278 277 276 277 277 278 279 281 283 285 287 290 292 293 293 292
250 250 251 251 252 252 253 254 255 256 257 258 259 260 261 262 263 263 264 265 265 265 266 266 266 265 266 266 266 266 266 266 266 267 267 267 268 268 269 269 270 270 270 271 272 272 273 273 274 274 275 276 277 277 278 279 279 279 279 278 276 274 274 274 274 273 274 277 278 279 277 275 275 275 276 277 278 279 281 284 286 287 290 292 293 293 293 291
252 252 254 255 257 258 259 260 261 263 264 264 265 266 266 267 267 268 269 269 269 269 269 269 269 269 269 269 268 268 268 267 268 268 268 268 268 269 269 269 270 270 271 271 272 272 273 274 274 275 276 276 277 277 278 278 278 278 277 276 274 273 273 274 274 274 274 276 276 276 274 273 275 276 276 278 279 282 285 287 288 289 291 293 293 293 293 291
256 259 261 263 266 268 269 270 271 272 272 272 272 272 273 273 273 274 274 274 274 274 275 274 274 274 274 273 272 271 271 270 270 269 269 269 269 269 269 270 270 270 271 272 272 273 273 274 275 276 277 277 278 278 279 279 278 277 275 274 273 272 272 272 274 275 275 275 274 274 273 273 276 278 278 279 281 284 287 289 291 292 292 292 292 293 292 290
265 268 271 274 275 276 277 278 278 278 278 277 277 277 277 277 277 277 277 278 278 278 278 278 278 278 278 277 277 276 275 273 272 271 270 270 269 270 270 270 270 271 271 272 272 273 274 275 275 276 277 278 279 280 280 279 278 276 275 273 273 273 272 271 272 274 275 275 274 274 273 273 277 280 280 280 282 286 288 290 292 292 292 292 292 291 290 287
272 273 274 275 276 277 277 277 277 277 277 277 278 278 280 281 282 282 281 281 280 280 280 281 281 280 280 280 279 278 277 276 274 273 272 271 270 270 270 270 271 271 271 272 272 273 274 275 275 276 277 278 279 280 279 277 276 275 274 273 273 272 271 270 271 273 273 274 274 275 275 277 280 284 285 284 285 287 288 290 290 290 291 291 292 290 288 286
272 272 273 273 274 274 275 275 276 278 279 281 283 285 287 288 289 288 286 285 284 284 284 283 283 283 282 282 281 280 279 277 275 273 272 271 271 270 270 270 270 271 271 272 272 273 274 274 275 276 277 278 278 277 276 274 274 274 274 273 273 272 271 270 270 271 271 272 274 275 277 280 284 286 287 288 289 289 289 289 289 290 291 292 291 289 287 286
274 275 276 278 279 279 281 283 285 287 289 291 293 295 296 296 295 294 292 290 289 288 288 287 287 287 286 285 284 282 280 278 275 273 272 271 270 270 270 270 270 270 271 271 272 272 273 274 274 275 276 277 276 275 273 271 273 275 275 275 273 272 271 272 271 271 271 271 274 276 278 282 285 286 287 289 290 290 289 288 288 289 291 291 290 288 287 287
281 283 285 287 288 289 291 294 296 297 298 300 301 302 303 302 300 298 296 295 294 293 293 293 292 292 291 290 287 285 282 279 277 274 272 271 270 269 269 269 269 269 270 270 271 271 272 273 273 274 274 274 274 273 271 271 274 277 277 275 273 271 271 272 273 273 273 275 277 278 281 283 284 285 287 288 289 289 289 289 290 290 290 290 289 288 289 289
289 293 296 297 297 297 300 303 303 303 305 306 306 307 307 306 304 302 300 299 298 297 297 297 297 297 296 294 291 287 284 281 278 276 274 272 270 270 269 269 269 269 269 269 270 271 270 270 272 273 273 273 272 273 274 275 277 278 276 273 270 268 268 271 274 275 277 279 280 281 283 284 284 285 286 287 287 288 289 290 290 290 290 289 288 289 290 290
295 300 302 302 302 302 304 306 307 307 308 308 309 309 309 308 306 304 302 301 301 301 301 301 300 300 298 296 292 288 285 282 280 277 275 273 272 270 269 269 269 269 268 268 269 270 269 268 270 272 274 274 274 273 275 277 277 275 272 270 268 269 270 273 275 277 279 281 282 283 284 285 285 285 286 286 288 289 290 290 290 290 290 289 289 290 290 291
294 298 300 301 301 301 304 307 308 308 308 309 310 310 309 308 307 306 305 304 303 303 303 303 302 302 300 296 293 290 286 284 281 279 276 274 272 270 269 267 267 267 268 267 266 266 267 267 269 271 272 273 272 272 273 273 272 271 269 269 271 273 274 275 277 278 280 281 282 283 284 284 284 285 286 287 289 289 289 290 290 290 289 289 290 290 291 291
292 296 298 298 297 297 301 306 307 307 308 309 310 309 309 308 307 306 305 305 305 305 305 305 304 303 300 296 293 291 288 285 282 279 277 275 272 270 268 267 266 265 265 265 264 264 265 267 269 271 272 271 271 270 270 268 267 267 268 269 271 273 275 276 277 278 280 281 282 283 282 282 284 285 287 288 288 288 289 289 290 290 289 290 290 290 290 290
291 294 295 293 293 295 300 304 305 306 308 309 309 308 308 307 307 307 306 306 307 307 306 306 305 303 299 295 292 290 287 285 283 280 277 275 273 270 269 268 267 265 264 263 263 264 266 267 268 269 269 269 268 268 268 268 267 268 269 270 272 274 275 277 278 279 281 282 282 282 282 283 285 286 287 287 288 288 288 288 288 288 288 289 289 289 289 289
288 289 289 289 291 294 298 302 303 306 308 309 308 308 307 307 307 307 307 307 307 307 307 306 305 301 297 294 291 288 286 284 282 280 278 275 273 271 269 267 266 266 265 265 264 265 265 266 265 265 264 265 266 266 268 269 270 271 272 273 274 276 277 278 279 280 281 281 282 283 283 285 286 287 287 287 287 288 288 287 287 287 288 289 289 289 290 290
284 285 286 288 291 295 299 302 305 307 308 308 308 308 307 307 307 307 307 308 308 307 307 306 303 299 296 293 291 288 286 284 282 280 278 276 274 272 269 268 266 265 264 264 264 265 265 265 265 264 265 266 267 267 268 269 270 272 273 275 276 277 278 278 279 279 280 282 283 284 285 286 287 288 289 289 288 288 287 287 287 288 289 289 289 289 289 290
281 284 286 289 294 298 301 304 306 307 308 308 308 308 307 307 307 308 308 308 308 308 308 305 302 298 295 293 290 289 287 286 283 281 279 278 276 274 271 269 268 266 264 262 263 264 265 266 266 266 267 268 268 269 270 271 272 273 274 276 276 277 277 278 279 280 282 283 285 286 287 288 289 289 289 289 288 288 287 287 288 289 289 289 289 289 290 290
282 285 289 292 296 299 301 304 306 307 309 309 309 308 308 308 308 308 308 309 309 308 307 304 301 298 295 293 291 290 289 288 286 284 282 280 278 276 273 272 270 268 267 265 264 265 266 267 267 268 269 270 270 271 272 273 274 274 275 276 276 277 278 279 281 283 284 285 287 288 289 290 290 289 288 288 288 288 288 288 289 289 289 289 289 290 290 289
285 289 292 295 298 299 302 305 308 309 310 310 308 308 308 308 309 309 309 309 309 308 306 303 300 298 296 294 293 292 291 290 289 287 285 282 281 278 276 275 273 272 270 268 267 267 268 269 270 270 271 271 272 273 273 274 274 274 275 277 278 279 280 282 284 285 286 287 288 289 289 290 289 289 289 289 289 289 289 289 289 288 288 288 289 288 287 286
289 292 294 297 299 302 305 308 310 311 310 309 308 308 308 309 309 309 309 310 309 307 304 302 299 298 296 295 294 293 293 292 292 291 288 286 284 282 280 278 276 275 274 272 271 270 270 271 272 273 273 272 272 273 273 273 274 275 277 278 279 281 282 284 286 287 288 289 289 289 289 289 289 289 290 290 289 289 289 288 287 287 287 287 287 285 284 283
291 293 296 299 303 307 309 310 311 311 309 308 308 308 308 309 309 309 310 310 309 306 303 301 299 297 296 295 295 294 294 293 294 293 292 291 288 287 284 281 280 279 277 276 275 274 273 274 275 274 274 274 274 274 275 275 276 277 279 280 282 283 285 287 288 288 289 289 290 289 289 289 289 289 290 290 290 289 288 287 286 287 287 286 284 282 282 282
293 296 300 305 309 311 310 311 310 310 309 308 308 308 309 310 310 310 310 309 308 305 302 300 299 298 297 296 296 295 294 294 295 295 295 294 293 291 290 288 285 283 281 280 278 277 277 277 278 278 277 278 278 278 279 280 281 282 283 284 285 286 287 288 288 288 289 289 290 290 290 290 290 290 290 290 290 289 288 287 287 287 285 283 281 281 282 283
297 302 306 309 310 310 310 310 310 309 308 308 308 309 309 310 310 310 310 309 306 304 302 301 300 300 298 298 298 297 296 296 296 296 296 296 296 295 295 293 291 288 285 283 282 280 279 279 280 281 281 281 282 282 283 283 284 285 285 286 287 287 288 288 288 288 289 289 290 289 289 289 289 289 289 289 289 289 288 288 288 286 284 282 282 283 284 286
302 306 308 309 310 310 310 310 309 309 308 308 309 309 310 310 310 310 309 307 305 303 302 302 302 301 300 299 300 299 299 299 299 298 298 298 298 298 297 296 295 293 291 289 286 284 282 280 280 281 282 283 283 284 285 285 286 286 287 287 287 288 289 290 290 290 290 290 289 289 288 288 288 289 289 289 289 288 288 288 287 285 284 283 284 285 286 287
304 307 309 310 311 311 310 309 309 309 309 309 309 309 310 310 310 309 308 306 305 304 303 303 302 303 302 302 301 301 301 301 301 301 301 300 300 299 298 297 296 295 293 291 290 288 286 284 283 283 283 284 285 285 286 286 286 287 287 287 288 289 289 290 290 290 290 290 289 288 288 288 288 288 288 288 288 287 287 286 285 284 284 285 286 286 287 287
305 308 310 311 311 310 310 309 309 309 309 309 309 310 310 310 310 309 307 306 306 305 305 304 304 303 303 303 303 303 302 302 302 302 302 302 302 301 300 298 297 296 294 293 291 290 289 288 287 286 286 286 287 287 287 287 288 288 289 289 289 290 290 289 289 289 289 290 290 289 289 289 289 288 288 287 287 286 285 284 283 284 284 285 286 286 287 287
306 309 311 311 310 310 309 309 309 309 310 310 310 311 311 310 309 308 307 307 306 306 305 305 305 305 305 304 304 303 303 303 303 303 303 303 303 302 301 299 298 297 296 295 294 293 292 290 289 289 289 289 289 289 290 290 290 290 291 291 291 290 290 290 289 289 289 290 290 290 289 290 290 289 288 287 286 285 284 283 284 284 284 285 285 286 286 287
308 309 310 310 309 309 309 309 309 310 310 310 311 311 311 310 309 308 307 307 306 306 306 306 306 306 306 305 305 304 305 305 304 304 304 304 303 302 301 299 299 298 297 296 295 294 293 292 291 290 290 290 290 290 291 291 291 291 291 291 291 291 291 291 291 291 291 291 291 290 289 289 290 289 288 287 286 285 284 284 284 284 284 285 285 286 287 287
309 310 310 309 309 309 309 309 310 310 311 311 311 311 310 309 308 307 307 307 307 307 307 307 306 306 305 305 305 305 305 306 305 305 304 303 302 301 299 298 297 296 295 295 294 293 293 293 291 290 290 290 290 291 291 292 292 292 292 292 292 292 292 292 292 293 293 293 292 291 289 289 288 288 287 286 285 285 284 284 284 285 286 286 287 287 288 289
309 309 309 308 308 309 309 310 310 310 311 311 311 310 310 309 308 308 308 308 308 308 307 307 306 305 305 305 306 306 306 306 305 304 303 302 301 300 298 298 297 296 296 295 294 294 294 294 293 292 292 292 293 293 293 293 293 292 292 292 291 291 291 292 292 293 293 293 292 290 289 288 287 287 286 286 285 285 285 285 286 287 287 287 288 288 289 289
309 308 308 308 309 309 310 310 311 311 311 311 311 310 309 310 309 309 309 309 308 308 307 307 306 306 306 306 307 306 306 305 304 303 303 301 301 300 299 298 298 297 297 297 297 296 296 296 296 295 295 294 294 294 294 294 293 293 293 293 292 292 292 292 292 293 293 293 292 291 290 289 288 288 288 287 287 286 286 287 287 287 287 287 288 288 289 290
308 308 308 309 309 310 310 311 311 311 311 311 310 310 310 311 310 310 309 308 308 308 308 307 307 307 307 306 305 305 304 303 303 302 302 301 301 301 300 299 299 299 299 298 298 298 298 298 298 298 297 296 296 295 295 295 294 294 294 294 294 294 294 294 294 294 294 293 293 293 293 292 291 291 290 289 289 289 289 288 288 288 288 288 289 290 290 290
308 308 309 309 310 310 311 311 311 311 310 311 311 312 312 311 310 309 309 309 309 309 308 308 308 307 306 305 305 304 304 303 303 303 302 302 302 301 301 301 300 300 300 300 300 300 300 300 300 299 298 298 297 297 296 296 296 296 295 294 294 295 295 295 295 295 294 293 292 292 292 292 292 292 291 291 290 291 291 290 290 290 290 291 291 292 292 292
308 308 309 310 310 311 311 311 311 311 311 312 312 312 312 311 310 310 310 310 309 309 308 308 308 307 306 305 305 304 304 303 303 303 302 302 302 302 302 302 302 302 302 302 302 302 302 302 302 300 299 298 298 297 297 297 297 296 295 294 294 294 294 294 293 293 292 292 291 291 291 292 292 293 292 292 292 292 292 293 293 293 294 294 295 295 295 295
308 309 309 310 310 311 311 311 311 312 313 313 313 312 311 311 311 311 310 310 309 308 308 308 307 306 306 305 305 304 304 303 303 303 302 303 303 303 302 303 303 303 303 303 304 304 304 304 303 302 301 300 299 299 298 297 296 295 294 293 293 292 293 293 293 293 292 292 293 292 292 292 292 293 293 294 294 294 294 294 295 295 296 296 296 296 296 296
309 309 310 310 311 311 311 312 313 314 313 313 312 312 312 311 311 310 310 309 309 308 308 307 307 306 305 305 305 305 305 304 304 304 304 304 304 304 304 304 304 304 304 304 304 305 305 305 305 303 302 302 302 301 300 299 297 296 295 294 294 294 294 294 294 294 294 293 294 294 294 294 294 294 294 294 294 295 295 295 295 295 295 295 295 295 295 296
309 310 310 310 311 312 313 313 313 313 312 312 312 312 312 311 310 310 309 309 309 308 308 307 307 306 306 306 306 306 306 306 306 306 306 306 305 305 305 305 305 305 305 306 306 306 306 306 306 305 304 304 304 302 301 300 299 298 297 296 296 296 296 296 296 296 296 296 296 296 296 296 296 296 296 295 295 295 295 295 294 295 295 295 296 296 297 297
309 310 311 312 313 314 313 313 312 312 313 313 312 312 311 311 310 310 310 310 309 309 309 308 308 307 307 307 307 308 308 308 308 308 307 307 307 307 306 306 307 307 308 308 308 308 307 307 307 306 305 305 305 304 303 302 301 300 299 299 299 299 299 299 299 299 299 298 298 298 297 298 297 297 297 297 296 296 296 296 296 297 298 298 298 298 298 298
310 311 313 313 314 313 313 313 313 313 313 313 312 312 311 311 311 311 311 310 310 310 309 309 308 308 309 309 310 310 310 310 310 309 309 309 309 309 309 309 310 310 310 310 310 309 308 307 307 305 305 304 304 304 303 302 302 301 301 301 301 301 300 300 300 299 299 299 299 299 299 299 299 298 298 298 298 298 298 298 298 299 299 298 298 297 297 298
312 313 314 313 313 313 313 313 313 313 313 312 312 312 312 312 312 312 311 311 310 310 310 310 310 310 311 311 312 312 312 312 312 312 312 312 312 312 312 311 311 312 312 312 311 309 308 307 306 305 303 303 303 302 302 302 302 301 301 301 301 301 300 300 299 299 299 299 299 299 299 299 298 298 299 299 299 299 299 298 298 298 298 298 298 298 298 298
313 313 313 313 313 313 313 312 313 312 312 312 312 312 313 313 313 312 311 311 311 311 311 312 312 313 313 314 314 314 314 314 315 314 314 314 314 314 314 314 314 314 314 313 312 310 308 307 306 305 304 304 304 304 303 302 302 301 301 301 301 301 300 300 301 301 300 299 299 299 299 299 298 298 298 298 297 298 298 298 298 298 298 298 298 298 299 299